Voltar ao catálogo

ORESAT0.5

AtivoRádio AmadorSSO
NORAD 60525·PAYLOAD·🇺🇸 United States

Lançado Aug 16, 2024 de Vandenberg Space Force Base

Loading…

Próximas Passagens (próximas 24 horas)

TLE

AtualizadoSource: Space-Track

Época: Sep 14, 2026, 04:55 UTC

1 60525U 24149BK  26257.20525119  .00016881  00000-0  32134-3 0  9995
2 60525  97.3682 344.7552 0003776 324.1299  35.9698 15.48280265116232

Acompanhe ORESAT0.5 em tempo real com AllMySat

Download on the App Store